Regional Weather Roundup
Issued by NWS

Home | Current Version | Previous Version | Graphics & Text | Print | Product List | Glossary On
Versions: 1 2 3 4 5 6 7 8 9 10 11 12 13 14 15 16 17 18 19 20 21 22 23 24 25 26 27 28 29 30 31 32 33 34 35 36 37 38 39 40 41 42 43 44 45 46 47 48 49 50
000
ASUS43 KMPX 300810
RWRMN
WEATHER ROUNDUP FOR MINNESOTA
NATIONAL WEATHER SERVICE TWIN CITIES/CHANHASSEN MN
300 AM CDT FRI SEP 30 2016


NOTE: "FAIR" INDICATES FEW OR NO CLOUDS BELOW 12,000 FEET WITH NO
SIGNIFICANT WEATHER AND/OR OBSTRUCTIONS TO VISIBILITY. N/A MEANS
CURRENT SKY AND/OR WEATHER CONDITIONS ARE NOT AVAILABLE.

MNZ060>063-068>070-300900-
   Twin Cities Metro

CITY           SKY/WX    TMP DP  RH WIND       PRES   REMARKS
TWIN CITIES    CLEAR     53  49  86 NE3       30.38S
ST PAUL        CLEAR     52  50  93 CALM      30.39S
CRYSTAL        CLEAR     48  45  89 N3        30.38R FOG
BLAINE         CLEAR     50  50 100 CALM      30.39R FOG
LAKEVILLE      CLEAR     46  46 100 CALM      30.38S
EDEN PRAIRIE   CLEAR     51  49  92 NE3       30.37S
LAKEVILLE      CLEAR     46  46 100 CALM      30.38S
SOUTH ST PAUL  CLEAR     51  49  94 CALM      30.38S
LAKE ELMO      FAIR      52  52 100 CALM      30.40R
$$
MNZ001>005-007-008-013>017-022>024-027-028-300900-
   Northwest Minnesota

CITY           SKY/WX    TMP DP  RH WIND       PRES   REMARKS
BEMIDJI        CLEAR     46  45  96 SE5       30.41S
HALLOCK        CLEAR     48  45  87 SE8       30.36S
ROSEAU         CLEAR     46  43  87 SE3       30.40S HAZE
WARROAD        CLEAR     48  45  87 SE7       30.41F
THIEF RVR FALL CLEAR     46  43  89 SE8       30.39F
CROOKSTON      CLEAR     46  45  93 SE9       30.38S
FOSSTON        CLEAR     46  43  87 SE6       30.39F
DETROIT LAKES  CLEAR     48  46  93 SE6       30.40F
MOORHEAD       CLEAR     48  45  87 SE7       30.37S
PARK RAPIDS    CLEAR     47  43  86 E3        30.40F
MAHNOMEN       FAIR      48  46  90 SE7       30.38F
$$
MNZ006-009>011-018-025>026-300900-
   North Central Minnesota

CITY           SKY/WX    TMP DP  RH WIND       PRES   REMARKS
BAUDETTE       CLOUDY    53  46  77 SE8       30.43S
FLAG ISLAND    CLOUDY    55  48  76 SE10      30.40F
INTL FALLS     CLOUDY    50  47  89 E6        30.44F
WASKISH        CLOUDY    52  48  87 SE3       30.43S
BIG FORK       MOCLDY    37  37 100 CALM      30.43F FOG
GRAND RAPIDS   FOG       47  47 100 VRB5      30.45S VSB 1/4
CRANE LAKE     CLEAR     37  37 100 CALM      30.47F
ORR            PTCLDY    39  37  93 CALM      30.43S FOG
COOK           FOG       45  45 100 CALM      30.45S VSB 3/4
WALKER         FAIR      46  45  94 CALM      30.41F
$$
MNZ012-019>021-037-300900-
   Northeast Minnesota

CITY           SKY/WX    TMP DP  RH WIND       PRES   REMARKS
DULUTH         FOG       51  51 100 E8        30.44S VSB 1/2
ELY            FOG       43  41  93 CALM      30.45S VSB 1/4
HIBBING        FOG       47  47 100 CALM      30.44F VSB 1
EVELETH        CLOUDY    50  49  97 CALM      30.45S
DULUTH HARBOR  CLOUDY    55  52  88 NE10      30.45S
TWO HARBORS    CLOUDY    54  48  82 E9        30.44R
SILVER BAY     CLOUDY    54  52  94 E3        30.44S
GRAND MARAIS     N/A     50  48  93 NE3       30.46S
G MARAIS ARPRT CLEAR     43  39  87 N5        30.47S
$$
MNZ029>031-032-039>041-046>048-054>057-064-300900-
   West Central Minnesota

CITY           SKY/WX    TMP DP  RH WIND       PRES   REMARKS
FERGUS FALLS   CLEAR     52  48  87 SE7       30.39F
MORRIS         CLEAR     46  46 100 E7        30.37F
ALEXANDRIA     CLEAR     47  47 100 E6        30.40F
ELBOW LAKE     FAIR      49  48  97 SE8       30.38F
WADENA         FOG       41  39  93 CALM      30.40F VSB 1/2
GLENWOOD       CLEAR     45  45 100 E6        30.39F FOG
BENSON         CLEAR     48  45  87 CALM      30.38F
ORTONVILLE     CLEAR     46  43  87 CALM      30.37S
MADISON        PTCLDY    45  45 100 CALM      30.36F FOG
WILLMAR        FAIR      46  46 100 NE3       30.39F
$$
MNZ033>034-036-042>043-049>051-058-059-300900-
   Central Minnesota

CITY           SKY/WX    TMP DP  RH WIND       PRES   REMARKS
ST CLOUD       MOCLDY    49  49 100 E6        30.39F
SAUK CENTRE    FAIR      44  44  99 CALM      30.40S FOG
PAYNESVILLE    CLEAR     44  44 100 CALM      30.39F
AITKIN         CLOUDY    54  48  82 CALM      30.41S
PINE RIVER     CLOUDY    43  43 100 CALM      30.44S
BRAINERD       CLOUDY    50  50 100 E5        30.41F FOG
STAPLES        MOCLDY    39  37  93 CALM      30.40F FOG
LONG PRAIRIE   FAIR      45  45 100 CALM      30.41S FOG
LITTLE FALLS   CLEAR     46  45  93 CALM      30.40F
LITCHFIELD     CLEAR     50  48  93 CALM      30.38
BUFFALO        CLEAR     49  47  93 CALM      30.39S
MAPLE LAKE     FOG       47  47  99 CALM      30.40S VSB 1/2
HUTCHINSON     CLEAR     49  49  99 NE5       30.38F
$$
MNZ037-044-045-052-053-300900-
   East Central Minnesota

CITY           SKY/WX    TMP DP  RH WIND       PRES   REMARKS
PRINCETON      FOG       52  48  87 NE5       30.40S VSB 3/4
MORA           CLOUDY    48  46  93 NE3       30.43S FOG
CAMBRIDGE      FOG       52  48  87 NE5       30.39S VSB 3/4
MOOSE LAKE     CLOUDY    50  46  87 NE3       30.42R FOG
HINCKLEY       CLOUDY    50  50 100 CALM      30.43S FOG
CLOQUET        CLOUDY    52  48  87 E7        30.44S FOG
MCGREGOR       CLOUDY    52  50  93 E3        30.43S
$$
MNZ071>073-080-081-089-090-097-098-300900-
   Southwest Minnesota

CITY           SKY/WX    TMP DP  RH WIND       PRES   REMARKS
MONTEVIDEO     CLEAR     46  46 100 S3        30.39S
GRANITE FALLS  CLEAR     45  44  97 E3        30.38F FOG
CANBY          CLEAR     43  42  96 CALM      30.37F
MARSHALL       CLEAR     41  39  93 W5        30.37F
REDWOOD FALLS  CLEAR     48  46  93 CALM      30.37S
OLIVIA         CLEAR     46  45  93 NE3       30.36F
PIPESTONE      CLEAR     48  45  87 E3        30.36S
WINDOM         CLEAR     46  45  93 CALM      30.36F
WORTHINGTON    CLEAR     45  43  93 CALM      30.36
JACKSON        CLEAR     43  41  93 CALM      30.36F
TRACY          CLEAR     47  46  95 CALM      30.37S
SLAYTON        CLEAR     41  41 100 NW5       30.37F
$$
MNZ065>067-074>077-082>085-091>093-300900-
   South Central Minnesota

CITY           SKY/WX    TMP DP  RH WIND       PRES   REMARKS
MANKATO        CLEAR     54  50  86 E7        30.36S
NEW ULM        CLEAR     50  48  93 CALM      30.36F
ST JAMES       CLEAR     45  43  93 CALM      30.37S
FAIRMONT       CLEAR     45  44  97 N5        30.36S
GLENCOE        CLEAR     46  46 100 CALM      30.37S
FARIBAULT      CLEAR     48  48 100 CALM      30.37S
OWATONNA       CLEAR     52  48  87 E5        30.36S
WASECA         CLEAR     52  50  93 NE6       30.37S
ALBERT LEA     CLEAR     48  48 100 NE5       30.35S
$$
MNZ078>079-086>088-094>096-300900-
   Southeast Minnesota

CITY           SKY/WX    TMP DP  RH WIND       PRES   REMARKS
ROCHESTER      CLEAR     50  49  96 NE7       30.36S
RED WING       CLEAR     52  50  93 CALM      30.37S
STANTON        FOG       45  43  95 CALM      30.37R VSB 3/4
DODGE CENTER   CLEAR     50  48  93 NE5       30.36S
WINONA         CLEAR     52  50  93 CALM      30.35F
AUSTIN         CLEAR     48  46  93 N3        30.35S
PRESTON        CLEAR     51  48  92 NE8       30.35S
$$
ABBREVIATIONS USED IN REMARKS
   TC - TEMPERATURES IN CELSIUS
  WCI - WIND CHILL INDEX
   HX - HEAT INDEX
  VSB - VISIBILITY
$$




USA.gov is the U.S. government's official web portal to all federal, state and local government web resources and services.